RH
76 68 62 67 68 49 54 55 46 58 63 60 49 54 72 69 59 86 80 80 82 85 86 80 85 84 83 84 84 84 84 83 83 82 84 84 84 84 83 82 79 79 76 75 75 75 74 72 73
64 58 63 76 66 47 47 43 57 44 49 50 52 56 67 77 63 74 84 79 76 82 87 87 86 85 84 84 85 84 82 84 85 86 86 85 85 84 81 76 76 76 75 74 72 71 71 71 72
52 47 67 78 59 46 53 46 46 40 43 47 55 55 66 82 68 71 72 70 75 86 87 85 86 85 83 85 85 84 84 84 85 86 85 85 83 80 76 75 74 75 75 72 71 69 70 69 69
55 55 56 52 35 31 45 49 44 45 44 49 57 73 63 57 62 63 62 67 78 85 84 85 84 82 84 85 85 83 83 83 85 85 83 81 79 74 74 74 75 75 73 72 70 70 70 70 70
56 57 56 40 32 26 40 42 42 51 54 57 57 79 75 61 59 64 69 71 82 90 85 83 85 84 83 86 86 85 84 84 84 83 81 81 79 74 75 74 72 72 70 69 68 68 68 71 72
48 51 61 61 43 22 33 36 41 56 64 66 73 76 82 61 69 67 69 75 77 87 89 82 83 83 85 83 84 86 85 83 84 82 81 82 79 77 75 73 71 69 67 67 66 68 71 73 74
38 63 55 48 45 39 41 38 51 66 63 63 59 82 80 69 64 64 68 74 78 86 94 92 88 79 82 86 85 84 84 83 82 82 81 79 77 75 74 73 72 70 69 67 67 71 73 75 77
39 32 43 54 49 32 38 34 42 52 51 52 51 84 89 66 60 62 67 77 80 87 94 98 96 93 94 88 83 79 83 82 80 80 78 78 74 72 71 78 78 70 70 69 69 73 76 77 76
38 59 53 45 38 36 26 36 38 37 56 45 43 57 62 58 58 68 72 80 83 82 93 96 97 98 97 96 83 82 79 81 80 79 79 85 92 83 69 74 70 70 72 72 71 74 77 79 76
30 47 39 32 34 32 26 28 33 46 50 52 56 51 56 57 62 71 79 84 85 87 87 89 96 97 96 84 95 97 88 93 94 93 93 95 91 93 84 79 66 64 72 72 72 74 76 76 83
26 28 26 27 28 28 36 36 40 48 58 54 57 55 60 63 67 71 75 74 79 79 78 80 90 95 95 95 98 99 99 99 98 94 93 95 93 95 94 92 91 93 79 83 79 83 83 84 82
28 20 23 29 31 28 32 35 32 46 50 44 45 52 57 63 66 68 72 73 76 75 74 79 88 87 93 98 94 97 95 95 98 94 93 97 98 96 96 96 95 95 93 89 91 92 88 86 89
19 22 23 24 27 30 31 33 40 45 43 40 40 46 54 60 61 60 60 66 69 72 70 78 86 88 92 85 95 93 91 92 90 93 93 96 97 96 96 97 94 95 95 95 95 97 95 91 86
18 23 25 26 31 32 31 32 33 47 43 43 43 50 48 52 55 57 58 62 66 69 72 76 78 84 90 93 94 95 89 89 89 86 93 92 93 96 96 97 93 94 98 96 97 97 97 97 92
17 24 22 27 30 34 33 42 41 42 44 47 47 47 48 49 50 55 58 59 59 66 75 77 81 85 88 88 93 88 96 92 88 84 81 85 94 95 95 97 97 97 95 95 97 95 96 97 93
16 18 27 26 29 32 40 59 41 41 46 49 47 46 47 49 48 50 54 55 59 71 76 79 66 83 89 94 94 94 94 92 94 89 85 81 90 94 95 97 98 97 97 98 97 97 97 98 98
21 23 28 27 26 33 42 55 39 37 42 46 46 45 46 49 48 50 50 55 56 64 74 78 79 86 90 92 95 93 90 92 92 93 96 88 92 94 98 99 98 98 98 98 96 97 97 98 98
23 28 23 26 23 32 43 50 41 39 41 42 43 42 44 46 48 48 49 51 56 66 68 67 76 87 92 95 96 96 96 96 94 96 96 88 92 92 94 97 95 97 98 98 98 98 97 98 98
18 25 25 22 19 42 43 47 43 41 42 44 47 49 48 48 45 46 48 50 58 68 73 75 80 91 94 97 97 97 97 96 96 92 91 91 90 90 92 96 94 95 96 96 96 96 96 98 96
15 20 26 24 19 27 46 47 41 41 43 44 47 50 49 56 53 50 55 57 62 65 73 82 81 94 91 96 97 96 97 97 96 96 94 92 87 90 90 95 96 94 96 92 92 93 97 98 97
17 25 24 22 21 29 41 54 50 43 39 38 42 45 44 57 56 54 56 59 61 67 82 81 89 90 92 94 97 97 97 97 95 96 96 85 74 77 86 88 89 90 94 95 93 92 92 97 97
18 13 16 23 23 39 34 61 55 41 40 39 42 45 46 53 54 57 57 61 60 69 77 82 88 92 92 94 96 93 95 86 93 94 89 77 71 77 77 77 84 91 95 92 93 95 94 95 97
12 10 11 24 24 34 41 53 42 46 46 42 41 41 42 47 54 59 58 56 60 66 76 80 88 94 93 94 95 86 79 86 96 94 85 85 82 80 77 85 87 88 93 90 91 89 92 96 96
9 11 15 22 29 39 35 37 51 52 36 31 36 39 37 44 52 56 55 54 62 66 72 82 88 91 88 86 77 68 79 85 90 91 84 85 79 92 88 80 84 87 88 88 90 89 88 92 94
12 16 21 23 26 25 23 38 31 40 29 28 32 38 36 42 45 54 53 61 69 72 74 82 86 92 76 72 71 69 76 78 81 83 87 87 94 92 84 83 84 78 80 84 90 89 87 89 92
13 15 25 27 34 25 23 23 15 34 28 27 26 32 34 41 42 46 46 55 64 69 72 76 83 81 75 73 72 74 78 76 77 82 89 77 84 86 84 80 77 75 77 84 88 90 83 88 92
12 20 18 25 51 32 28 23 26 30 31 27 27 32 34 39 43 44 47 53 60 65 71 74 76 71 72 73 81 79 77 84 90 89 78 76 85 78 78 75 76 78 84 83 86 91 89 84 86
9 13 20 27 28 32 29 30 33 46 38 35 32 32 33 36 44 44 46 50 58 58 66 71 70 69 69 74 71 71 76 82 83 83 80 85 80 80 77 77 79 79 81 83 84 87 84 88 88
18 20 22 22 30 29 31 31 32 37 39 41 36 30 35 38 39 45 46 46 58 56 64 71 71 72 68 73 75 79 82 79 81 83 80 80 81 84 87 87 86 83 82 85 89 89 86 87 89
15 17 22 24 25 32 32 32 28 30 33 33 33 35 38 33 37 40 42 44 57 58 67 71 72 72 73 72 88 81 85 84 84 84 80 82 85 83 78 81 83 84 85 88 89 88 84 86 89
Wind_Speed
7 4 1 3 3 4 7 6 4 10 3 3 2 10 12 11 4 6 5 9 10 9 7 12 15 18 18 18 18 17 16 17 17 16 16 15 15 14 13 12 12 11 10 11 10 9 9 8 6
3 2 2 1 4 2 5 15 11 11 9 8 12 9 13 7 8 11 8 10 12 9 7 8 15 17 17 17 17 17 17 17 15 15 14 14 15 14 13 12 11 11 10 10 8 7 7 5 4
6 7 1 3 1 4 11 13 12 15 13 7 8 13 6 8 13 11 10 14 11 8 8 10 15 16 17 17 17 17 16 16 16 15 15 15 14 13 13 12 11 11 10 8 7 5 6 4 3
6 2 2 2 6 2 16 16 19 14 7 10 12 12 6 7 7 10 16 15 12 10 8 13 15 16 17 16 17 16 15 15 14 14 14 14 14 13 12 11 11 10 8 7 5 4 4 4 3
1 3 4 4 2 10 17 22 20 18 10 15 8 8 6 9 14 17 16 13 13 9 9 10 15 16 17 17 16 15 15 14 13 13 13 13 13 13 12 11 9 8 7 6 4 3 2 3 3
5 2 6 3 8 5 15 20 20 16 18 18 15 11 4 14 15 14 14 12 11 11 9 10 15 17 16 17 16 14 14 13 12 11 11 11 11 10 9 8 7 6 5 4 2 3 4 4 4
8 6 7 2 4 14 17 18 16 19 16 10 13 9 9 14 14 15 13 12 11 10 7 7 9 13 16 16 16 15 14 13 12 12 11 11 10 8 8 7 6 6 5 3 3 3 5 6 6
6 10 4 2 2 4 14 5 17 21 10 18 13 9 12 16 16 13 13 11 10 8 7 6 6 6 8 10 16 16 14 14 13 12 12 11 9 7 6 3 5 6 5 4 4 3 5 6 5
4 6 3 6 8 3 7 12 12 8 17 10 4 12 16 20 17 13 10 8 9 9 7 6 6 6 6 6 11 15 16 13 13 10 10 6 3 3 1 3 5 5 4 6 5 5 5 6 6
6 5 11 7 5 7 8 18 13 10 15 13 17 15 19 21 18 16 13 12 10 10 9 8 6 6 7 7 4 4 6 4 5 5 5 3 3 3 1 5 4 7 7 7 6 6 7 3 2
7 11 9 9 6 10 8 8 3 19 14 26 23 24 23 21 18 17 16 15 14 14 10 10 8 6 7 4 3 2 2 3 3 5 5 4 3 3 2 1 1 2 5 1 3 2 2 3 3
5 11 18 8 9 9 8 7 6 7 12 20 21 23 21 23 17 16 15 12 11 12 10 11 8 8 8 4 5 4 3 3 3 4 5 4 3 3 3 2 2 0 2 1 1 1 3 3 3
16 13 14 14 10 10 8 7 10 15 21 18 20 20 19 18 16 14 16 13 13 11 10 10 11 9 7 6 4 4 5 5 5 4 5 4 4 4 4 3 2 1 1 1 3 2 3 3 4
12 24 21 16 10 7 18 12 8 17 20 19 17 12 15 15 15 9 11 14 12 11 12 11 12 8 6 5 6 5 4 4 4 4 5 6 5 4 4 3 3 2 2 2 2 2 3 3 4
25 20 13 13 11 8 16 7 10 20 20 20 16 12 11 10 14 12 14 14 12 10 10 9 9 8 8 7 6 4 4 3 2 4 5 5 5 6 5 3 3 4 2 3 2 3 4 4 4
8 14 9 7 14 10 11 6 11 21 20 17 18 16 14 12 14 15 16 13 9 9 11 9 9 9 7 6 5 3 3 3 3 3 4 4 6 6 5 2 3 3 2 2 2 3 3 3 3
6 9 12 6 5 10 7 8 13 14 17 17 17 17 16 13 13 12 15 14 12 13 12 11 8 8 8 6 4 4 4 3 3 3 2 2 4 5 5 4 4 4 2 2 2 2 2 3 4
5 8 17 15 11 3 11 8 19 16 15 17 15 14 14 16 18 14 15 13 11 9 12 10 6 7 7 4 3 2 2 3 3 3 2 2 2 5 4 3 2 3 3 3 3 4 3 4 3
5 7 12 10 11 9 16 13 19 17 14 15 13 12 12 15 13 13 14 13 12 9 9 8 8 7 6 3 3 2 3 2 3 4 4 4 3 4 4 3 2 1 2 4 4 2 4 2 2
4 6 8 2 12 8 13 17 19 19 21 18 16 14 14 11 12 13 12 13 13 12 10 8 8 9 7 5 3 3 3 3 3 2 2 5 5 4 3 3 2 2 2 2 1 2 1 1 1
6 8 10 11 6 7 12 1 8 14 13 13 14 18 17 18 16 14 13 12 12 11 10 9 9 11 8 7 3 2 1 1 1 0 3 4 5 5 4 5 4 2 2 1 0 1 2 1 1
8 10 14 8 16 8 8 6 7 17 15 11 13 16 17 18 20 17 15 12 13 12 10 11 10 10 8 8 6 5 4 3 3 3 3 4 4 5 5 4 3 4 2 2 1 1 2 2 1
14 8 12 11 16 8 3 6 10 8 9 11 15 21 19 20 23 21 19 17 14 13 13 12 11 9 8 7 7 5 4 2 3 3 6 3 3 4 4 3 4 3 2 1 2 1 0 1 2
14 5 7 6 5 2 11 8 5 11 26 20 12 18 19 19 22 22 19 17 16 14 13 11 12 8 8 8 8 9 8 6 4 3 4 3 1 2 5 6 4 3 2 1 2 2 1 2 2
4 7 2 3 1 8 8 8 13 21 24 19 20 21 21 20 20 20 20 16 17 18 15 12 13 9 9 9 9 9 9 8 7 5 4 4 3 2 4 4 4 2 2 3 3 3 2 1 3
8 11 9 7 3 6 8 8 13 18 26 20 19 24 22 20 21 23 22 18 20 20 18 16 14 12 11 9 9 7 8 5 4 5 3 3 3 4 4 5 5 4 3 3 4 2 2 2 4
9 4 11 8 1 4 4 8 7 6 16 16 17 17 20 21 21 22 20 18 19 20 21 20 18 16 15 11 8 8 8 7 6 6 5 4 4 4 6 6 5 4 3 2 1 2 3 1 3
15 8 4 4 7 4 5 5 7 4 12 12 13 16 18 18 19 19 19 20 20 19 20 19 19 19 17 14 11 9 8 8 7 6 7 6 5 4 5 5 5 4 4 4 2 2 4 5 4
2 3 5 7 6 7 3 8 8 15 17 18 17 17 13 17 20 20 20 19 20 19 19 18 18 17 15 13 11 9 8 8 8 7 7 6 5 5 4 5 5 6 5 5 4 5 6 5 4
9 10 8 8 5 1 6 9 5 13 13 16 16 14 12 18 19 20 21 20 19 20 18 19 17 16 15 13 11 10 8 8 8 7 8 7 7 5 6 6 6 6 6 6 5 6 5 5 6
Wind_Direction
144 173 344 26 67 54 116 126 118 135 176 289 57 94 91 27 71 125 136 140 134 122 121 117 118 117 119 117 121 121 119 118 121 118 114 114 112 107 106 106 107 108 111 106 107 111 102 98 89
122 132 7 358 76 123 70 130 152 148 158 126 91 81 51 71 66 109 113 141 133 131 120 122 123 122 125 124 123 125 123 118 119 118 122 122 118 119 118 119 117 114 109 108 111 109 107 111 119
162 231 45 82 114 125 108 142 130 136 145 155 117 86 76 105 112 141 136 140 130 124 120 132 122 126 129 129 129 128 126 124 125 129 134 125 127 127 133 131 126 120 116 114 116 114 117 122 125
177 176 324 67 198 188 131 136 127 130 157 100 98 79 72 116 119 127 148 135 129 132 131 127 129 131 133 134 132 133 128 132 135 136 131 134 137 145 142 135 127 119 122 130 138 145 142 151 153
176 67 60 18 177 111 135 142 145 130 94 103 91 87 81 90 117 122 132 134 134 132 134 127 134 137 140 141 141 139 140 141 140 140 142 144 150 150 146 135 132 137 146 152 164 184 211 196 202
77 106 50 19 312 93 130 132 118 99 107 104 103 101 90 131 127 134 131 134 139 136 134 143 142 140 137 138 138 139 143 147 150 151 149 155 157 153 144 151 156 157 161 163 199 243 250 246 243
107 71 328 69 12 108 128 133 124 131 134 125 132 105 137 149 145 142 140 136 138 135 132 137 147 147 145 140 143 147 154 161 163 163 161 168 164 162 169 176 180 187 188 220 240 263 266 262 265
77 90 236 212 212 119 153 121 138 146 116 132 133 152 162 168 155 148 142 137 138 132 136 140 145 145 150 153 151 160 166 168 170 173 179 176 168 174 192 223 225 222 221 248 262 265 261 266 267
118 97 237 225 162 193 169 125 154 119 133 162 187 140 157 160 158 147 142 141 138 152 155 156 162 150 157 162 175 173 172 176 178 180 188 181 143 165 92 273 271 267 239 248 257 263 266 257 273
166 136 199 230 180 146 142 132 141 130 148 113 117 131 144 152 159 155 155 160 163 167 174 168 166 167 168 174 180 187 188 187 181 186 197 158 161 196 209 221 218 237 243 223 239 248 266 280 294
210 222 160 204 136 138 118 116 69 133 143 147 152 148 152 152 154 160 166 169 171 177 174 176 171 173 173 177 178 192 201 187 205 202 192 171 159 151 143 188 27 324 276 267 242 256 269 270 281
138 206 149 182 166 141 159 104 97 144 155 151 146 142 151 158 164 166 167 169 163 166 174 169 169 176 199 164 186 188 194 205 206 209 206 172 185 189 180 183 188 40 75 94 31 283 273 313 283
204 120 156 153 149 121 119 89 107 118 135 143 141 148 151 158 166 168 165 168 173 174 180 166 174 187 189 174 183 197 207 201 209 207 198 176 191 191 186 190 193 119 112 276 272 306 333 316 307
145 138 149 140 131 118 117 134 100 137 138 146 153 144 158 164 174 162 160 165 178 170 178 170 173 179 171 173 192 193 199 207 201 198 203 186 184 185 200 193 214 237 173 240 264 288 292 298 304
142 131 129 150 151 126 101 76 126 145 149 151 156 159 165 169 159 168 167 167 169 175 170 173 167 167 177 180 180 173 150 137 163 188 191 171 187 192 197 206 223 255 275 280 298 307 328 329 329
141 120 134 218 145 165 96 148 135 149 151 159 164 173 179 184 174 167 170 172 176 159 172 173 180 174 172 175 167 160 175 166 182 189 202 198 203 198 193 188 256 257 269 260 277 303 308 297 289
322 153 137 160 252 139 110 144 167 160 157 165 176 182 180 183 182 171 172 176 177 166 174 181 179 172 173 176 163 172 190 203 211 201 202 275 255 196 169 210 214 241 244 260 246 279 243 292 302
227 109 163 170 177 107 138 173 167 173 168 176 179 186 183 182 185 177 176 175 176 173 173 175 167 174 173 163 166 188 201 228 223 227 228 168 127 158 159 213 230 199 187 219 230 236 245 239 266
216 133 175 196 151 123 158 161 176 176 183 190 186 178 176 178 182 173 171 171 172 167 164 170 169 171 157 162 168 177 199 212 242 238 214 202 170 155 153 160 181 196 218 238 241 235 231 283 239
233 199 200 220 163 115 167 172 181 181 195 191 184 177 172 159 165 174 164 161 167 174 175 174 173 165 177 170 163 163 177 216 203 211 189 170 157 159 170 195 222 232 243 315 284 213 233 246 252
285 201 199 185 145 66 126 180 189 205 199 202 196 182 173 164 170 177 177 174 171 177 173 177 174 171 178 176 156 180 92 37 37 252 142 165 155 172 157 166 187 198 151 123 143 137 173 231 310
268 213 221 159 158 158 175 207 244 196 198 202 186 183 185 173 172 178 183 182 185 184 176 172 174 176 187 178 175 174 178 187 212 157 154 168 175 188 189 199 175 143 127 130 224 174 157 126 328
240 211 199 167 176 108 185 101 214 135 215 213 198 197 187 180 178 180 183 182 187 178 181 179 179 183 187 177 179 152 159 179 166 134 146 176 221 246 213 160 149 149 137 203 223 329 354 162 154
245 254 52 53 94 117 206 151 252 187 209 210 219 199 192 185 182 182 184 180 181 183 182 180 179 189 168 161 157 157 166 170 135 145 170 207 96 56 140 139 153 156 143 206 245 250 222 214 191
166 65 318 353 85 206 191 187 233 207 217 203 197 195 195 188 180 178 182 174 175 180 183 181 182 184 169 166 165 172 173 165 171 179 172 155 115 169 174 147 175 176 231 264 236 206 221 219 164
208 156 157 198 248 250 141 212 246 200 206 200 196 193 195 183 184 183 183 178 177 179 183 184 180 177 176 176 178 176 165 181 170 169 167 169 182 182 182 192 190 214 266 299 284 255 254 198 198
238 147 188 134 65 67 258 300 329 204 194 183 183 180 192 188 184 185 185 183 184 184 186 185 181 179 181 178 164 172 169 165 168 171 168 181 195 187 182 191 195 215 246 271 316 224 232 197 202
185 175 94 359 161 202 282 259 232 200 181 194 189 186 188 188 185 186 188 189 192 192 189 187 185 182 181 175 171 179 172 162 169 167 181 180 204 224 205 208 214 227 231 251 252 240 243 213 230
74 124 61 118 137 159 222 268 216 200 184 185 200 208 168 182 187 187 194 194 196 194 190 189 187 182 183 177 171 176 180 178 166 179 189 193 206 224 223 230 233 238 245 255 257 259 253 248 254
163 171 145 135 230 150 156 265 263 183 183 180 201 202 184 186 189 192 193 192 192 195 190 191 187 188 186 175 179 189 174 178 175 186 193 194 207 208 212 221 228 240 241 233 226 245 253 242 258